TimeEST,TemperatureF,Dew PointF,Humidity,Sea Level PressureIn,VisibilityMPH,Wind Direction,Wind SpeedMPH,Gust SpeedMPH,PrecipitationIn,Events,Conditions,WindDirDegrees,DateUTC
12:15 AM,44.1,38.7,81,29.56,7.0,South,27.6,40.3,N/A,Rain,Light Rain,190,2013-02-19 05:15:00
12:35 AM,43.7,38.8,83,29.56,7.0,South,27.6,36.8,N/A,Rain,Light Rain,190,2013-02-19 05:35:00
12:55 AM,43.7,39.2,84,29.55,7.0,SSW,25.3,34.5,N/A,Rain,Light Rain,200,2013-02-19 05:55:00
1:15 AM,43.7,39.4,85,29.54,7.0,SSW,24.2,34.5,N/A,Rain,Light Rain,200,2013-02-19 06:15:00
1:35 AM,43.3,40.1,88,29.54,7.0,SSW,21.9,34.5,N/A,Rain,Light Rain,200,2013-02-19 06:35:00
1:55 AM,40.8,37.2,87,29.59,4.0,West,35.7,42.6,N/A,,Overcast,280,2013-02-19 06:55:00
2:15 AM,34.9,32.0,89,29.61,7.0,West,20.7,38.0,N/A,Rain,Light Rain,280,2013-02-19 07:15:00
2:35 AM,33.1,30.9,92,29.62,5.0,West,31.1,38.0,N/A,Snow,Light Snow,280,2013-02-19 07:35:00
2:55 AM,32.2,29.8,91,29.64,7.0,West,28.8,40.3,N/A,,Overcast,280,2013-02-19 07:55:00
3:15 AM,32.0,28.4,87,29.65,7.0,West,23.0,28.8,N/A,,Overcast,270,2013-02-19 08:15:00
3:35 AM,32.0,29.1,89,29.65,3.0,West,23.0,35.7,N/A,Snow,Light Snow,280,2013-02-19 08:35:00
3:55 AM,31.3,28.6,90,29.66,5.0,WNW,26.5,34.5,N/A,Snow,Light Snow,290,2013-02-19 08:55:00
4:15 AM,29.5,26.4,88,29.67,4.0,West,29.9,40.3,N/A,Snow,Light Snow,280,2013-02-19 09:15:00
4:35 AM,29.1,25.7,87,29.69,10.0,West,27.6,35.7,N/A,,Overcast,280,2013-02-19 09:35:00
4:55 AM,28.6,24.8,86,29.70,7.0,West,29.9,34.5,N/A,,Overcast,280,2013-02-19 09:55:00
5:15 AM,28.0,23.5,83,29.72,10.0,WNW,25.3,33.4,N/A,,Overcast,290,2013-02-19 10:15:00
5:35 AM,27.1,21.9,81,29.73,10.0,West,24.2,29.9,N/A,,Overcast,280,2013-02-19 10:35:00
5:55 AM,27.3,22.1,81,29.74,10.0,West,29.9,38.0,N/A,,Overcast,270,2013-02-19 10:55:00
6:15 AM,27.1,21.6,80,29.74,10.0,West,27.6,35.7,N/A,,Overcast,270,2013-02-19 11:15:00
6:55 AM,26.1,19.4,76,29.75,7.0,West,27.6,35.7,N/A,Snow,Light Snow,280,2013-02-19 11:55:00
7:15 AM,25.9,19.4,76,29.76,10.0,West,23.0,34.5,N/A,,Overcast,270,2013-02-19 12:15:00
7:35 AM,25.7,19.4,77,29.76,10.0,West,26.5,32.2,N/A,,Overcast,270,2013-02-19 12:35:00
7:55 AM,25.5,19.4,78,29.77,7.0,West,24.2,31.1,N/A,,Overcast,280,2013-02-19 12:55:00
8:15 AM,25.2,18.9,77,29.79,7.0,West,23.0,34.5,N/A,Snow,Light Snow,270,2013-02-19 13:15:00
8:35 AM,24.6,18.9,79,29.80,4.0,West,24.2,32.2,N/A,Snow,Light Snow,280,2013-02-19 13:35:00
8:55 AM,23.7,17.6,77,29.81,7.0,West,26.5,33.4,N/A,Snow,Light Snow,260,2013-02-19 13:55:00
9:15 AM,23.2,16.2,75,29.81,7.0,West,24.2,29.9,N/A,,Overcast,270,2013-02-19 14:15:00
9:35 AM,23.4,16.7,76,29.82,3.0,West,24.2,29.9,N/A,Snow,Light Snow,260,2013-02-19 14:35:00
9:55 AM,23.2,18.0,80,29.82,1.8,West,28.8,33.4,N/A,Snow,Light Snow,260,2013-02-19 14:55:00
10:15 AM,22.8,18.0,82,29.83,0.5,West,27.6,35.7,N/A,Snow,Light Snow,270,2013-02-19 15:15:00
10:35 AM,21.2,17.4,85,29.84,0.5,West,23.0,29.9,N/A,Snow,Light Snow,270,2013-02-19 15:35:00
10:55 AM,21.4,16.9,83,29.85,3.0,West,23.0,-,N/A,Snow,Light Snow,270,2013-02-19 15:55:00
11:15 AM,21.6,16.3,80,29.85,2.5,West,25.3,-,N/A,Snow,Light Snow,270,2013-02-19 16:15:00
11:35 AM,21.7,16.2,79,29.86,4.0,West,26.5,33.4,N/A,Snow,Light Snow,270,2013-02-19 16:35:00
11:55 AM,22.3,16.3,78,29.86,5.0,West,24.2,34.5,N/A,Snow,Light Snow,270,2013-02-19 16:55:00
12:15 PM,22.8,16.0,75,29.86,5.0,West,23.0,32.2,N/A,Snow,Light Snow,270,2013-02-19 17:15:00
12:35 PM,22.3,16.2,77,29.87,4.0,West,31.1,36.8,N/A,Snow,Light Snow,270,2013-02-19 17:35:00
12:55 PM,21.6,14.5,74,29.88,4.0,West,29.9,38.0,N/A,Snow,Light Snow,270,2013-02-19 17:55:00
1:15 PM,20.8,12.9,71,29.89,5.0,West,28.8,39.1,N/A,,Haze,270,2013-02-19 18:15:00
1:35 PM,20.1,12.4,72,29.89,7.0,West,29.9,35.7,N/A,Snow,Light Snow,270,2013-02-19 18:35:00
1:55 PM,20.1,12.7,73,29.89,7.0,West,23.0,33.4,N/A,Snow,Light Snow,270,2013-02-19 18:55:00
2:15 PM,20.1,12.9,74,29.90,2.5,West,24.2,35.7,N/A,Snow,Light Snow,270,2013-02-19 19:15:00
2:35 PM,20.1,13.1,74,29.90,4.0,West,24.2,28.8,N/A,Snow,Light Snow,270,2013-02-19 19:35:00
2:55 PM,20.7,13.5,74,29.91,7.0,West,25.3,28.8,N/A,Snow,Light Snow,270,2013-02-19 19:55:00
3:15 PM,21.0,14.0,74,29.92,3.0,West,21.9,-,N/A,Snow,Light Snow,280,2013-02-19 20:15:00
3:35 PM,20.8,15.1,78,29.93,1.0,West,28.8,33.4,N/A,Snow,Light Snow,280,2013-02-19 20:35:00
3:55 PM,19.6,13.5,77,29.95,4.0,West,24.2,39.1,N/A,,Haze,280,2013-02-19 20:55:00
4:15 PM,19.4,12.0,73,29.96,7.0,West,24.2,31.1,N/A,Snow,Light Snow,270,2013-02-19 21:15:00
4:35 PM,19.2,12.0,74,29.97,5.0,West,26.5,36.8,N/A,Snow,Light Snow,280,2013-02-19 21:35:00
4:55 PM,19.0,12.2,75,29.98,5.0,West,20.7,24.2,N/A,Snow,Light Snow,280,2013-02-19 21:55:00
5:15 PM,18.9,13.1,78,29.99,3.0,West,26.5,31.1,N/A,Snow,Light Snow,280,2013-02-19 22:15:00
5:35 PM,18.7,12.9,78,30.00,2.5,West,19.6,29.9,N/A,Snow,Light Snow,280,2013-02-19 22:35:00
5:55 PM,18.5,13.6,81,30.01,1.8,West,17.3,27.6,N/A,Snow,Light Snow,280,2013-02-19 22:55:00
6:15 PM,18.5,13.6,81,30.02,3.0,West,21.9,26.5,N/A,Snow,Light Snow,280,2013-02-19 23:15:00
7:35 PM,18.5,12.9,79,30.05,5.0,West,20.7,25.3,N/A,Snow,Light Snow,280,2013-02-20 00:35:00
7:55 PM,18.9,13.5,79,30.05,4.0,West,20.7,27.6,N/A,Snow,Light Snow,280,2013-02-20 00:55:00
8:15 PM,19.2,13.8,80,30.05,5.0,West,20.7,28.8,N/A,Snow,Light Snow,280,2013-02-20 01:15:00
8:35 PM,19.4,13.8,79,30.06,2.5,West,25.3,28.8,N/A,Snow,Light Snow,280,2013-02-20 01:35:00
8:55 PM,19.6,13.3,77,30.06,5.0,WNW,24.2,32.2,N/A,Snow,Light Snow,290,2013-02-20 01:55:00
9:15 PM,19.4,11.8,72,30.06,7.0,WNW,26.5,33.4,N/A,Snow,Light Snow,290,2013-02-20 02:15:00
9:35 PM,19.4,11.3,71,30.07,10.0,WNW,24.2,34.5,N/A,Snow,Light Snow,290,2013-02-20 02:35:00
9:55 PM,19.4,11.3,71,30.08,7.0,WNW,26.5,32.2,N/A,Snow,Light Snow,300,2013-02-20 02:55:00
10:15 PM,19.4,11.8,72,30.08,7.0,WNW,24.2,29.9,N/A,Snow,Light Snow,290,2013-02-20 03:15:00
10:35 PM,19.4,11.7,72,30.08,5.0,WNW,21.9,28.8,N/A,Snow,Light Snow,290,2013-02-20 03:35:00
10:55 PM,18.9,12.4,76,30.08,3.0,WNW,24.2,33.4,N/A,Snow,Light Snow,290,2013-02-20 03:55:00
11:15 PM,18.5,11.7,75,30.08,5.0,WNW,20.7,27.6,N/A,Snow,Light Snow,300,2013-02-20 04:15:00
11:35 PM,18.3,12.0,76,30.09,2.0,WNW,20.7,27.6,N/A,Snow,Light Snow,300,2013-02-20 04:35:00
11:55 PM,18.1,11.8,76,30.10,4.0,WNW,19.6,24.2,N/A,Snow,Light Snow,290,2013-02-20 04:55:00